{"data":{"norad_id":66772,"epoch":"2026-05-25T03:02:47.233248Z","epoch_age_seconds":57341,"freshness":"FRESH","line1":"1 66772U 25276DL  26145.12693557  .00005929  00000+0  26968-3 0  9994","line2":"2 66772  97.4239 219.5014 0000428  57.4198 302.7079 15.21101869 26947","mean_motion":15.21101869,"eccentricity":4.28e-5,"inclination_deg":97.4239,"raan_deg":219.5014,"arg_perigee_deg":57.4198,"mean_anomaly_deg":302.7079,"bstar":0.00026968,"rev_number":2694,"period_min":94.668215807708,"perigee_km":502.22126992896,"apogee_km":502.81025380538,"semimajor_km":6880.6527618672,"source":"CELESTRAK","updated_at":"2026-05-25T13:38:06.477588Z"}}